Hourly Data Report for October 03, 2017

All times are specified in Local Standard Time (LST). Add 1 hour to adjust for Daylight Saving Time where and when it is observed.

VICTORIA GONZALES CS
BRITISH COLUMBIA

48°24'47.896" N
123°19'29.192" W
61.00 m
1018611
71200
WLM

Download Data

Hourly Data (October 2017)
Hourly Data Report for October 3, 2017
Temp Definition
°C
Dew Point Temp Definition
°C
Rel Hum Definition
%
Wind Dir Definition
10's deg

Wind Spd Definition
km/h
Visibility Definition
km
Stn Press Definition
kPa
Hmdx Definition


Wind Chill Definition


Weather Definition


TIME
00:00 12.5 1.3 46 36 13   101.67     LegendNANA
01:00 12.3 1.6 48 36 11   101.69     LegendNANA
02:00 11.4 2.3 53 1 14   101.72     LegendNANA
03:00 11.1 2.9 57 2 15   101.71     LegendNANA
04:00 10.9 3.3 60 3 15   101.72     LegendNANA
05:00 10.8 2.7 57 3 16   101.75     LegendNANA
06:00 10.4 2.4 58 3 12   101.79     LegendNANA
07:00 10.5 3.4 62 2 18   101.76     LegendNANA
08:00 13.0 3.2 51 2 15   101.82     LegendNANA
09:00 14.8 2.0 42 4 19   101.84     LegendNANA
10:00 15.7 5.3 50 8 7   101.87     LegendNANA
11:00 15.9 5.2 49 12 6   101.85     LegendNANA
12:00 18.0 -0.1 29 2 12   101.79     LegendNANA
13:00 16.1 4.9 48 28 3   101.73     LegendNANA
14:00 18.2 0.1 29 1 7   101.66     LegendNANA
15:00 17.7 0.2 31 2 10   101.59     LegendNANA
16:00 17.3 0.1 31 2 13   101.56     LegendNANA
17:00 15.5 3.6 45 4 5   101.53     LegendNANA
18:00 13.7 6.1 60 30 4   101.50     LegendNANA
19:00 11.8 4.7 62 28 8   101.50     LegendNANA
20:00 12.6 2.9 52 26 11   101.51     LegendNANA
21:00 12.3 2.6 52 29 8   101.49     LegendNANA
22:00 12.4 2.2 50 29 6   101.47     LegendNANA
23:00 12.5 2.2 49 35 4   101.47     LegendNANA

Notes on Data Quality.

Legend

  • E = Estimated
  • M = Missing
  • NA = Not Available
  • ‡ = Partner data that is not subject to review by the National Climate Archives
Date modified: